Weather History for Goshen, IN

Change the Weather History Date:

Friday, February 7, 2014

  Actual Average Record
Temperature  
Mean Temperature 0 °F -  
Max Temperature 10 °F 29 °F 54 °F (2009)
Min Temperature -11 °F 13 °F -11 °F (2014)
Degree Days  
Heating Degree Days 66    
Moisture  
Dew Point -9 °F    
Average Humidity 72    
Maximum Humidity 79    
Minimum Humidity 61    
Precipitation  
Precipitation 0.00 in - - ()
Sea Level Pressure  
Sea Level Pressure 30.41 in    
Wind  
Wind Speed 9 mph (SW)    
Max Wind Speed 17 mph    
Max Gust Speed -    
Visibility 10 miles    
Events      
Averages and records for this station are not official NWS values.
T = Trace of Precipitation, MM = Missing Value Source: NWS Daily Summary

Daily Weather History Graph

Daily Weather History Graph

Search for Another Location

Airport:

Trip Planner

Search our weather history database for the weather conditions in past years. The results will help you decide how hot, cold, wet, or windy it might be!

Date:

Astronomy

Feb. 07, 2014 Rise Set
Actual Time 7:48 AM EST 6:06 PM EST
Civil Twilight 7:19 AM EST 6:35 PM EST
Nautical Twilight 6:46 AM EST 7:08 PM EST
Astronomical Twilight 6:14 AM EST 7:40 PM EST
Moon 12:16 PM EST (2/7) 2:04 AM EST (2/7)
Length of Visible Light 11h 16m
Length of Day
10h 18m
First Quarter, 59% of the Moon is Illuminated
Feb 7
First Quarter
Feb 14
Full
Feb 22
Last Quarter
Mar 1
New
Mar 8
First Quarter

Hourly Weather History & Observations

Time (EST) Temp. Windchill Dew Point Humidity Pressure Visibility Wind Dir Wind Speed Gust Speed Precip Events Conditions
12:53 AM -8.0 °F -22.5 °F -13.0 °F 79% 30.42 in 10.0 mi South 6.9 mph - N/A   Clear
1:53 AM -9.0 °F -25.2 °F -14.1 °F 79% 30.41 in 10.0 mi SSW 8.1 mph - N/A   Clear
2:53 AM -8.0 °F -21.0 °F -14.1 °F 75% 30.41 in 10.0 mi SSW 5.8 mph - N/A   Overcast
3:34 AM -9.4 °F -25.6 °F -16.6 °F 71% 30.34 in 10.0 mi SW 8.1 mph - N/A   Scattered Clouds
3:53 AM -9.9 °F -26.3 °F -15.0 °F 78% 30.41 in 10.0 mi SSW 8.1 mph - N/A   Partly Cloudy
4:07 AM -11.2 °F -26.4 °F -16.6 °F 77% 30.33 in 7.0 mi SSW 6.9 mph - N/A   Mostly Cloudy
4:43 AM -9.4 °F -22.7 °F -14.8 °F 77% 30.33 in 10.0 mi SSW 5.8 mph - N/A   Scattered Clouds
4:53 AM -9.0 °F -22.3 °F -14.1 °F 79% 30.40 in 10.0 mi SSW 5.8 mph - N/A   Partly Cloudy
5:53 AM -9.0 °F -23.8 °F -14.1 °F 79% 30.40 in 10.0 mi SSW 6.9 mph - N/A   Mostly Cloudy
6:53 AM -8.0 °F -22.5 °F -13.0 °F 79% 30.40 in 10.0 mi SSW 6.9 mph - N/A   Overcast
7:53 AM -5.1 °F -21.5 °F -11.0 °F 76% 30.42 in 10.0 mi SW 9.2 mph - N/A   Scattered Clouds
8:53 AM -6.0 °F -24.6 °F -11.0 °F 79% 30.44 in 10.0 mi SSW 11.5 mph - N/A   Partly Cloudy
9:53 AM -2.0 °F -18.7 °F -9.0 °F 72% 30.45 in 10.0 mi SW 10.4 mph - N/A   Clear
10:53 AM -0.0 °F -17.1 °F -8.0 °F 69% 30.46 in 10.0 mi SW 11.5 mph - N/A   Clear
11:53 AM 3.0 °F -13.3 °F -6.0 °F 66% 30.45 in 10.0 mi SW 11.5 mph - N/A   Clear
12:53 PM 6.1 °F -10.2 °F -4.0 °F 63% 30.44 in 10.0 mi SW 12.7 mph - N/A   Clear
1:53 PM 8.1 °F -7.7 °F -2.0 °F 64% 30.41 in 10.0 mi SW 12.7 mph - N/A   Clear
2:53 PM 9.0 °F -9.0 °F -0.9 °F 64% 30.41 in 10.0 mi SW 17.3 mph - N/A   Clear
3:53 PM 10.0 °F -7.1 °F -0.9 °F 61% 30.41 in 10.0 mi SW 16.1 mph - N/A   Clear
4:53 PM 9.0 °F -6.6 °F -2.0 °F 61% 30.41 in 10.0 mi SW 12.7 mph - N/A   Clear
5:53 PM 7.0 °F -7.5 °F -4.0 °F 61% 30.40 in 10.0 mi SW 10.4 mph - N/A   Clear
6:53 PM 3.9 °F -9.4 °F -5.1 °F 66% 30.41 in 10.0 mi SW 8.1 mph - N/A   Clear
7:53 PM 1.9 °F -11.8 °F -6.0 °F 69% 30.42 in 10.0 mi SSW 8.1 mph - N/A   Clear
8:53 PM -0.0 °F -13.0 °F -7.1 °F 72% 30.41 in 10.0 mi SSW 6.9 mph - N/A   Clear
9:53 PM 3.9 °F -8.2 °F -2.9 °F 73% 30.40 in 10.0 mi SW 6.9 mph - N/A   Clear
10:53 PM 3.9 °F -10.4 °F -2.9 °F 73% 30.40 in 10.0 mi SW 9.2 mph - N/A   Clear
11:53 PM 5.0 °F -10.0 °F -2.0 °F 73% 30.40 in 10.0 mi SW 10.4 mph - N/A   Partly Cloudy